Weather History for Everett, WA

Change the Weather History Date:

Wednesday, February 13, 2013

  Actual Average Record
Temperature  
Mean Temperature 44 °F -  
Max Temperature 46 °F 50 °F 68 °F (1963)
Min Temperature 42 °F 35 °F 15 °F (1949)
Degree Days  
Heating Degree Days 21    
Moisture  
Dew Point 40 °F    
Average Humidity 83    
Maximum Humidity 93    
Minimum Humidity 74    
Precipitation  
Precipitation 0.03 in - - ()
Sea Level Pressure  
Sea Level Pressure 30.41 in    
Wind  
Wind Speed 5 mph (ENE)    
Max Wind Speed 9 mph    
Max Gust Speed -    
Visibility 10 miles    
Events Rain    
Averages and records for this station are not official NWS values.
T = Trace of Precipitation, MM = Missing Value Source: NWS Daily Summary

Daily Weather History Graph

Daily Weather History Graph

Search for Another Location

Airport:

Trip Planner

Search our weather history database for the weather conditions in past years. The results will help you decide how hot, cold, wet, or windy it might be!

Date:

Astronomy

Feb. 13, 2013 Rise Set
Actual Time 7:18 AM PST 5:29 PM PST
Civil Twilight 6:46 AM PST 6:01 PM PST
Nautical Twilight 6:09 AM PST 6:37 PM PST
Astronomical Twilight 5:33 AM PST 7:13 PM PST
Moon 8:29 AM PST (2/13) 10:01 PM PST (2/13)
Length of Visible Light 11h 15m
Length of Day
10h 11m
Waxing Crescent, 14% of the Moon is Illuminated
Feb 13
Waxing Crescent
Feb 17
First Quarter
Feb 25
Full
Mar 4
Last Quarter
Mar 11
New

Hourly Weather History & Observations

Time (PST) Temp. Windchill Dew Point Humidity Pressure Visibility Wind Dir Wind Speed Gust Speed Precip Events Conditions
12:31 AM 46.4 °F 42.4 °F 42.8 °F 87% 30.30 in 10.0 mi SSW 8.1 mph - N/A   Overcast
12:53 AM 46.9 °F - 42.1 °F 83% 30.32 in 10.0 mi WSW 5.8 mph - N/A   Overcast
1:15 AM 44.6 °F 40.7 °F 42.8 °F 93% 30.31 in 10.0 mi West 6.9 mph - N/A   Overcast
1:25 AM 44.6 °F 40.7 °F 42.8 °F 93% 30.31 in 10.0 mi West 6.9 mph - N/A   Overcast
1:33 AM 44.6 °F 40.7 °F 42.8 °F 93% 30.32 in 10.0 mi NNW 6.9 mph - N/A   Overcast
1:53 AM 44.1 °F 41.5 °F 42.1 °F 93% 30.35 in 3.0 mi NW 4.6 mph - 0.01 in Rain Light Rain
2:21 AM 44.6 °F 42.2 °F 42.8 °F 93% 30.33 in 5.0 mi North 4.6 mph - 0.01 in   Overcast
2:35 AM 44.6 °F 41.4 °F 41.0 °F 87% 30.33 in 10.0 mi North 5.8 mph - 0.01 in   Overcast
2:53 AM 44.1 °F 41.5 °F 39.9 °F 85% 30.34 in 10.0 mi North 4.6 mph - 0.01 in   Overcast
3:53 AM 44.1 °F 41.5 °F 39.0 °F 82% 30.36 in 10.0 mi East 4.6 mph - N/A   Overcast
4:53 AM 43.0 °F 40.3 °F 39.9 °F 89% 30.37 in 10.0 mi ESE 4.6 mph - N/A   Overcast
5:53 AM 43.0 °F 39.5 °F 41.0 °F 93% 30.38 in 10.0 mi East 5.8 mph - 0.00 in   Overcast
6:53 AM 43.0 °F 38.8 °F 39.9 °F 89% 30.39 in 10.0 mi East 6.9 mph - N/A   Overcast
7:53 AM 43.0 °F 40.3 °F 39.9 °F 89% 30.40 in 10.0 mi ESE 4.6 mph - N/A   Overcast
8:53 AM 43.0 °F 41.3 °F 39.9 °F 89% 30.43 in 10.0 mi Variable 3.5 mph - 0.01 in   Overcast
9:53 AM 43.0 °F 40.3 °F 39.0 °F 86% 30.44 in 10.0 mi SE 4.6 mph - 0.00 in   Mostly Cloudy
10:53 AM 44.1 °F 40.1 °F 39.0 °F 82% 30.44 in 10.0 mi SSE 6.9 mph - N/A   Scattered Clouds
11:53 AM 45.0 °F 40.1 °F 39.9 °F 82% 30.44 in 10.0 mi South 9.2 mph - N/A   Overcast
12:29 PM 44.6 °F 40.2 °F 39.2 °F 81% 30.43 in 10.0 mi South 8.1 mph - N/A   Overcast
12:53 PM 45.0 °F 41.8 °F 39.0 °F 80% 30.44 in 10.0 mi SSE 5.8 mph - N/A   Overcast
1:36 PM 46.4 °F 44.3 °F 39.2 °F 76% 30.43 in 10.0 mi SSE 4.6 mph - N/A   Overcast
1:53 PM 46.0 °F 44.8 °F 39.9 °F 79% 30.44 in 10.0 mi WNW 3.5 mph - N/A   Overcast
2:48 PM 44.6 °F - 39.2 °F 81% 30.43 in 10.0 mi Calm Calm - N/A   Overcast
2:53 PM 45.0 °F - 39.9 °F 82% 30.44 in 10.0 mi Calm Calm - N/A   Overcast
3:27 PM 44.6 °F - 39.2 °F 81% 30.43 in 10.0 mi Calm Calm - N/A   Overcast
3:53 PM 45.0 °F 43.5 °F 39.9 °F 82% 30.45 in 10.0 mi WNW 3.5 mph - N/A   Overcast
4:53 PM 44.1 °F - 39.9 °F 85% 30.45 in 10.0 mi Calm Calm - N/A   Overcast
5:00 PM 44.6 °F 43.1 °F 39.2 °F 81% 30.44 in 10.0 mi North 3.5 mph - N/A   Overcast
5:53 PM 45.0 °F 43.5 °F 39.0 °F 80% 30.46 in 10.0 mi NNE 3.5 mph - N/A   Overcast
6:53 PM 45.0 °F 42.6 °F 37.0 °F 74% 30.46 in 10.0 mi ENE 4.6 mph - N/A   Overcast
7:12 PM 44.6 °F 43.1 °F 37.4 °F 76% 30.46 in 10.0 mi ENE 3.5 mph - N/A   Overcast
7:53 PM 44.1 °F - 37.0 °F 76% 30.48 in 10.0 mi Calm Calm - N/A   Overcast
8:13 PM 44.6 °F - 37.4 °F 76% 30.46 in 10.0 mi Calm Calm - N/A   Overcast
8:21 PM 42.8 °F - 37.4 °F 81% 30.46 in 10.0 mi Calm Calm - N/A   Overcast
8:53 PM 44.1 °F 42.5 °F 37.0 °F 76% 30.48 in 10.0 mi ENE 3.5 mph - N/A   Overcast
9:53 PM 44.1 °F - 37.0 °F 76% 30.48 in 10.0 mi Calm Calm - N/A   Mostly Cloudy
10:53 PM 44.1 °F 41.5 °F 37.9 °F 79% 30.49 in 10.0 mi ENE 4.6 mph - N/A   Overcast
11:43 PM 44.6 °F - 37.4 °F 76% 30.49 in 10.0 mi Calm Calm - N/A   Overcast
11:53 PM 44.1 °F - 37.9 °F 79% 30.51 in 10.0 mi Calm Calm - N/A   Overcast